Terminal Aerodrome Forecast
Issued by NWS

Current Version | Previous Version | Graphics & Text | Print | Product List | Glossary On
Versions: 1 2 3 4 5 6 7 8 9 10 11 12 13 14 15 16 17 18 19 20 21 22 23
000
FTUS41 KPBZ 310800 AAA
TAFHLG
TAF AMD
KHLG 310856Z 3109/0106 VRB03KT 6SM BR SKC
      TEMPO 3109/3112 1SM BR OVC001
     FM311500 27012G18KT P6SM SCT060
     FM312300 VRB05KT P6SM SKC=

USA.gov is the U.S. government's official web portal to all federal, state and local government web resources and services.